Time,TemperatureF,DewpointF,PressureIn,WindDirection,WindDirectionDegrees,WindSpeedMPH,WindSpeedGustMPH,Humidity,HourlyPrecipIn,Conditions,Clouds,dailyrainin,SolarRadiationWatts/m^2,SoftwareType,DateUTC
2013-10-19 00:01:00,79.5,72.5,29.95,ESE,107,7.0,7.0,79,0.00,,,0.00,0.0,meteohub,2013-10-19 04:01:00,
2013-10-19 00:02:00,79.5,72.5,29.95,ESE,111,5.0,7.0,79,0.00,,,0.00,0.0,meteohub,2013-10-19 04:02:00,
2013-10-19 00:04:00,79.5,72.5,29.95,ESE,103,2.0,7.0,79,0.00,,,0.00,0.0,meteohub,2013-10-19 04:04:00,
2013-10-19 00:09:00,79.5,72.5,29.95,ESE,109,5.0,8.0,79,0.00,,,0.00,0.0,meteohub,2013-10-19 04:09:00,
2013-10-19 00:14:00,79.5,72.5,29.95,ESE,110,5.0,8.0,79,0.00,,,0.00,0.0,meteohub,2013-10-19 04:14:00,
2013-10-19 00:19:00,79.5,72.5,29.95,ESE,107,3.0,7.0,79,0.00,,,0.00,0.0,meteohub,2013-10-19 04:19:00,
2013-10-19 00:24:00,79.5,72.5,29.94,East,100,3.0,7.0,79,0.00,,,0.00,0.0,meteohub,2013-10-19 04:24:00,
2013-10-19 00:29:00,79.3,72.3,29.94,ESE,105,3.0,7.0,79,0.00,,,0.00,0.0,meteohub,2013-10-19 04:29:00,
2013-10-19 00:34:00,79.3,72.3,29.94,ESE,122,3.0,8.0,79,0.00,,,0.00,0.0,meteohub,2013-10-19 04:34:00,
2013-10-19 00:39:00,79.3,72.3,29.94,ESE,102,3.0,8.0,79,0.00,,,0.00,0.0,meteohub,2013-10-19 04:39:00,
2013-10-19 00:44:00,79.2,71.8,29.94,ESE,115,3.0,8.0,78,0.00,,,0.00,0.0,meteohub,2013-10-19 04:44:00,
2013-10-19 00:49:00,79.2,71.8,29.94,East,98,5.0,7.0,78,0.00,,,0.00,0.0,meteohub,2013-10-19 04:49:00,
2013-10-19 00:54:00,79.2,71.8,29.94,ESE,112,1.0,7.0,78,0.00,,,0.00,0.0,meteohub,2013-10-19 04:54:00,
2013-10-19 01:00:00,79.2,71.8,29.94,SE,131,1.0,7.0,78,0.00,,,0.00,0.0,meteohub,2013-10-19 05:00:00,
2013-10-19 01:05:00,79.0,71.6,29.94,ESE,111,2.0,7.0,78,0.00,,,0.00,0.0,meteohub,2013-10-19 05:05:00,
2013-10-19 01:10:00,79.0,71.6,29.94,ESE,115,1.0,7.0,78,0.00,,,0.00,0.0,meteohub,2013-10-19 05:10:00,
2013-10-19 01:15:00,79.0,71.6,29.93,ESE,116,1.0,5.0,78,0.00,,,0.00,0.0,meteohub,2013-10-19 05:15:00,
2013-10-19 01:20:00,79.0,71.6,29.93,ESE,113,2.0,5.0,78,0.00,,,0.00,0.0,meteohub,2013-10-19 05:20:00,
2013-10-19 01:25:00,79.0,71.6,29.93,ESE,108,1.0,5.0,78,0.00,,,0.00,0.0,meteohub,2013-10-19 05:25:00,
2013-10-19 01:30:00,79.0,71.6,29.93,ESE,109,3.0,5.0,78,0.00,,,0.00,0.0,meteohub,2013-10-19 05:30:00,
2013-10-19 01:35:00,79.0,71.6,29.93,ESE,118,2.0,7.0,78,0.00,,,0.00,0.0,meteohub,2013-10-19 05:35:00,
2013-10-19 01:40:00,79.0,71.6,29.93,East,94,5.0,7.0,78,0.00,,,0.00,0.0,meteohub,2013-10-19 05:40:00,
2013-10-19 01:45:00,79.2,71.8,29.92,SE,130,1.0,7.0,78,0.00,,,0.00,0.0,meteohub,2013-10-19 05:45:00,
2013-10-19 01:50:00,79.2,71.8,29.92,ESE,110,4.0,5.0,78,0.00,,,0.00,0.0,meteohub,2013-10-19 05:50:00,
2013-10-19 01:55:00,79.2,71.8,29.92,SE,143,4.0,7.0,78,0.00,,,0.00,0.0,meteohub,2013-10-19 05:55:00,
2013-10-19 02:00:00,79.2,72.1,29.92,SSE,149,4.0,7.0,79,0.00,,,0.00,0.0,meteohub,2013-10-19 06:00:00,
2013-10-19 02:05:00,79.2,72.1,29.92,SE,142,5.0,5.0,79,0.00,,,0.00,0.0,meteohub,2013-10-19 06:05:00,
2013-10-19 02:10:00,79.2,72.1,29.92,SSE,149,2.0,6.0,79,0.00,,,0.00,0.0,meteohub,2013-10-19 06:10:00,
2013-10-19 02:15:00,79.2,72.1,29.92,ESE,123,3.0,6.0,79,0.00,,,0.00,0.0,meteohub,2013-10-19 06:15:00,
2013-10-19 02:20:00,79.0,72.0,29.92,SE,125,1.0,6.0,79,0.00,,,0.00,0.0,meteohub,2013-10-19 06:20:00,
2013-10-19 02:25:00,79.0,72.0,29.92,SE,125,0.0,4.0,79,0.00,,,0.00,0.0,meteohub,2013-10-19 06:25:00,
2013-10-19 02:31:00,78.8,72.1,29.92,SE,125,0.0,3.0,80,0.00,,,0.00,0.0,meteohub,2013-10-19 06:31:00,
2013-10-19 02:36:00,78.6,72.0,29.91,SE,125,0.0,2.0,80,0.00,,,0.00,0.0,meteohub,2013-10-19 06:36:00,
2013-10-19 02:41:00,78.6,72.0,29.91,SE,125,0.0,1.0,80,0.00,,,0.00,0.0,meteohub,2013-10-19 06:41:00,
2013-10-19 02:46:00,78.4,71.8,29.91,SE,125,0.0,1.0,80,0.00,,,0.00,0.0,meteohub,2013-10-19 06:46:00,
2013-10-19 02:51:00,78.4,71.8,29.91,SE,125,0.0,1.0,80,0.00,,,0.00,0.0,meteohub,2013-10-19 06:51:00,
2013-10-19 02:56:00,78.3,72.0,29.91,SE,125,2.0,2.0,81,0.00,,,0.00,0.0,meteohub,2013-10-19 06:56:00,
2013-10-19 03:01:00,77.9,72.0,29.91,SE,141,0.0,3.0,82,0.00,,,0.00,0.0,meteohub,2013-10-19 07:01:00,
2013-10-19 03:06:00,77.5,72.0,29.91,SE,141,1.0,3.0,83,0.00,,,0.00,0.0,meteohub,2013-10-19 07:06:00,
2013-10-19 03:11:00,77.4,72.1,29.90,SE,142,1.0,3.0,84,0.00,,,0.00,0.0,meteohub,2013-10-19 07:11:00,
2013-10-19 03:16:00,77.4,72.1,29.90,SE,142,1.0,3.0,84,0.00,,,0.00,0.0,meteohub,2013-10-19 07:16:00,
2013-10-19 03:21:00,77.2,72.0,29.90,SE,142,1.0,3.0,84,0.00,,,0.00,0.0,meteohub,2013-10-19 07:21:00,
2013-10-19 03:26:00,77.0,72.1,29.90,SE,142,1.0,2.0,85,0.00,,,0.00,0.0,meteohub,2013-10-19 07:26:00,
2013-10-19 03:31:00,76.8,72.0,29.90,SE,142,2.0,3.0,85,0.00,,,0.00,0.0,meteohub,2013-10-19 07:31:00,
2013-10-19 03:36:00,76.8,72.0,29.90,SE,141,1.0,3.0,85,0.00,,,0.00,0.0,meteohub,2013-10-19 07:36:00,
2013-10-19 03:41:00,76.6,71.8,29.90,SE,140,0.0,3.0,85,0.00,,,0.00,0.0,meteohub,2013-10-19 07:41:00,
2013-10-19 03:46:00,76.6,71.8,29.90,SE,140,1.0,3.0,85,0.00,,,0.00,0.0,meteohub,2013-10-19 07:46:00,
2013-10-19 03:51:00,76.6,72.1,29.90,SE,140,1.0,3.0,86,0.00,,,0.00,0.0,meteohub,2013-10-19 07:51:00,
2013-10-19 03:56:00,76.6,72.1,29.90,SE,140,1.0,3.0,86,0.00,,,0.00,0.0,meteohub,2013-10-19 07:56:00,
2013-10-19 04:01:00,76.6,72.1,29.90,SE,140,1.0,2.0,86,0.00,,,0.00,0.0,meteohub,2013-10-19 08:01:00,
2013-10-19 04:06:00,76.6,72.1,29.90,SE,140,1.0,2.0,86,0.00,,,0.00,0.0,meteohub,2013-10-19 08:06:00,
2013-10-19 04:11:00,76.6,72.1,29.90,SE,140,0.0,2.0,86,0.00,,,0.00,0.0,meteohub,2013-10-19 08:11:00,
2013-10-19 04:16:00,76.6,72.1,29.90,SE,140,0.0,2.0,86,0.00,,,0.00,0.0,meteohub,2013-10-19 08:16:00,
2013-10-19 04:21:00,76.5,72.0,29.90,SE,140,1.0,2.0,86,0.00,,,0.00,0.0,meteohub,2013-10-19 08:21:00,
2013-10-19 04:26:00,75.9,71.4,29.90,SE,140,0.0,2.0,86,0.00,,,0.00,0.0,meteohub,2013-10-19 08:26:00,
2013-10-19 04:31:00,75.7,71.6,29.90,SE,140,0.0,2.0,87,0.00,,,0.00,0.0,meteohub,2013-10-19 08:31:00,
2013-10-19 04:36:00,75.7,71.6,29.90,SE,140,0.0,2.0,87,0.00,,,0.00,0.0,meteohub,2013-10-19 08:36:00,
2013-10-19 04:41:00,75.6,71.8,29.90,SE,140,0.0,0.0,88,0.00,,,0.00,0.0,meteohub,2013-10-19 08:41:00,
2013-10-19 04:46:00,75.4,71.6,29.90,SE,140,0.0,0.0,88,0.00,,,0.00,0.0,meteohub,2013-10-19 08:46:00,
2013-10-19 04:51:00,75.2,71.4,29.90,SE,140,0.0,0.0,88,0.00,,,0.00,0.0,meteohub,2013-10-19 08:51:00,
2013-10-19 04:56:00,75.0,71.6,29.91,SE,140,0.0,0.0,89,0.00,,,0.00,0.0,meteohub,2013-10-19 08:56:00,
2013-10-19 05:01:00,75.0,71.6,29.91,SE,140,0.0,0.0,89,0.00,,,0.00,0.0,meteohub,2013-10-19 09:01:00,
2013-10-19 05:06:00,74.8,71.4,29.91,SSW,200,0.0,0.0,89,0.00,,,0.00,0.0,meteohub,2013-10-19 09:06:00,
2013-10-19 05:11:00,74.8,71.4,29.91,SSW,200,0.0,0.0,89,0.00,,,0.00,0.0,meteohub,2013-10-19 09:11:00,
2013-10-19 05:17:00,74.7,71.2,29.91,SSW,200,0.0,0.0,89,0.00,,,0.00,0.0,meteohub,2013-10-19 09:17:00,
2013-10-19 05:22:00,74.5,71.4,29.91,SSW,200,0.0,0.0,90,0.00,,,0.00,0.0,meteohub,2013-10-19 09:22:00,
2013-10-19 05:26:00,74.5,71.4,29.91,SSW,200,0.0,0.0,90,0.00,,,0.00,0.0,meteohub,2013-10-19 09:26:00,
2013-10-19 05:31:00,74.5,71.6,29.91,SSW,200,0.0,0.0,91,0.00,,,0.00,0.0,meteohub,2013-10-19 09:31:00,
2013-10-19 05:37:00,74.5,71.6,29.91,SSW,200,0.0,0.0,91,0.00,,,0.00,0.0,meteohub,2013-10-19 09:37:00,
2013-10-19 05:42:00,74.5,71.6,29.91,SSW,200,0.0,0.0,91,0.00,,,0.00,0.0,meteohub,2013-10-19 09:42:00,
2013-10-19 05:47:00,74.3,71.4,29.91,SSW,200,0.0,0.0,91,0.00,,,0.00,0.0,meteohub,2013-10-19 09:47:00,
2013-10-19 05:52:00,74.1,71.2,29.91,SSW,200,0.0,0.0,91,0.00,,,0.00,0.0,meteohub,2013-10-19 09:52:00,
2013-10-19 05:57:00,74.1,71.2,29.91,SSW,200,0.0,0.0,91,0.00,,,0.00,0.0,meteohub,2013-10-19 09:57:00,
2013-10-19 06:02:00,73.9,71.1,29.91,SSW,200,0.0,0.0,91,0.00,,,0.00,0.0,meteohub,2013-10-19 10:02:00,
2013-10-19 06:07:00,73.9,71.1,29.91,SSW,200,0.0,0.0,91,0.00,,,0.00,0.0,meteohub,2013-10-19 10:07:00,
2013-10-19 06:12:00,73.9,71.1,29.91,SSW,200,0.0,0.0,91,0.00,,,0.00,0.0,meteohub,2013-10-19 10:12:00,
2013-10-19 06:17:00,73.9,71.4,29.91,SSW,200,0.0,0.0,92,0.00,,,0.00,0.0,meteohub,2013-10-19 10:17:00,
2013-10-19 06:22:00,73.9,71.4,29.91,SSW,200,0.0,0.0,92,0.00,,,0.00,0.0,meteohub,2013-10-19 10:22:00,
2013-10-19 06:27:00,73.9,71.4,29.91,SSW,200,0.0,0.0,92,0.00,,,0.00,0.0,meteohub,2013-10-19 10:27:00,
2013-10-19 06:32:00,73.9,71.4,29.92,SSW,200,0.0,0.0,92,0.00,,,0.00,0.0,meteohub,2013-10-19 10:32:00,
2013-10-19 06:37:00,73.9,71.4,29.92,SSW,200,0.0,0.0,92,0.00,,,0.00,0.0,meteohub,2013-10-19 10:37:00,
2013-10-19 06:42:00,73.9,71.4,29.92,SSW,200,0.0,0.0,92,0.00,,,0.00,0.0,meteohub,2013-10-19 10:42:00,
2013-10-19 06:47:00,73.9,71.4,29.92,SSW,200,0.0,0.0,92,0.00,,,0.00,0.0,meteohub,2013-10-19 10:47:00,
2013-10-19 06:52:00,73.9,71.4,29.92,SSW,200,0.0,0.0,92,0.00,,,0.00,0.0,meteohub,2013-10-19 10:52:00,
2013-10-19 06:57:00,73.8,71.2,29.92,SSW,200,0.0,0.0,92,0.00,,,0.00,0.0,meteohub,2013-10-19 10:57:00,
2013-10-19 07:02:00,73.8,71.2,29.92,SSW,200,0.0,0.0,92,0.00,,,0.00,0.0,meteohub,2013-10-19 11:02:00,
2013-10-19 07:07:00,73.6,71.1,29.92,SSW,200,0.0,0.0,92,0.00,,,0.00,0.0,meteohub,2013-10-19 11:07:00,
2013-10-19 07:12:00,73.6,71.4,29.92,SSW,200,0.0,0.0,93,0.00,,,0.00,0.0,meteohub,2013-10-19 11:12:00,
2013-10-19 07:17:00,73.6,71.4,29.93,SSW,200,0.0,0.0,93,0.00,,,0.00,0.0,meteohub,2013-10-19 11:17:00,
2013-10-19 07:22:00,73.8,71.6,29.93,SSW,200,0.0,0.0,93,0.00,,,0.00,0.0,meteohub,2013-10-19 11:22:00,
2013-10-19 07:27:00,73.8,71.6,29.92,SSW,194,0.0,0.0,93,0.00,,,0.00,7.0,meteohub,2013-10-19 11:27:00,
2013-10-19 07:32:00,73.8,71.6,29.92,South,175,0.0,0.0,93,0.00,,,0.00,9.0,meteohub,2013-10-19 11:32:00,
2013-10-19 07:38:00,73.9,72.1,29.92,SE,136,0.0,1.0,94,0.00,,,0.00,12.0,meteohub,2013-10-19 11:38:00,
2013-10-19 07:43:00,73.9,72.1,29.93,SE,136,0.0,1.0,94,0.00,,,0.00,18.0,meteohub,2013-10-19 11:43:00,
2013-10-19 07:48:00,74.5,72.7,29.92,SE,136,0.0,1.0,94,0.00,,,0.00,33.0,meteohub,2013-10-19 11:48:00,
2013-10-19 07:53:00,74.8,73.0,29.93,SE,136,0.0,1.0,94,0.00,,,0.00,46.0,meteohub,2013-10-19 11:53:00,
2013-10-19 07:58:00,75.0,73.4,29.93,SE,137,0.0,0.0,95,0.00,,,0.00,62.0,meteohub,2013-10-19 11:58:00,
2013-10-19 08:03:00,75.6,73.8,29.93,SE,137,0.0,0.0,94,0.00,,,0.00,77.0,meteohub,2013-10-19 12:03:00,
2013-10-19 08:08:00,75.7,73.9,29.93,SE,138,2.0,0.0,94,0.00,,,0.00,91.0,meteohub,2013-10-19 12:08:00,
2013-10-19 08:13:00,76.3,74.1,29.94,SE,140,0.0,4.0,93,0.00,,,0.00,105.0,meteohub,2013-10-19 12:13:00,
2013-10-19 08:18:00,76.8,74.7,29.94,SE,140,0.0,4.0,93,0.00,,,0.00,121.0,meteohub,2013-10-19 12:18:00,
2013-10-19 08:23:00,77.4,74.5,29.94,ESE,123,0.0,4.0,91,0.00,,,0.00,137.0,meteohub,2013-10-19 12:23:00,
2013-10-19 08:28:00,78.1,74.8,29.94,SE,146,0.0,3.0,90,0.00,,,0.00,153.0,meteohub,2013-10-19 12:28:00,
2013-10-19 08:33:00,78.6,74.5,29.94,SE,127,3.0,4.0,87,0.00,,,0.00,169.0,meteohub,2013-10-19 12:33:00,
2013-10-19 08:38:00,79.5,74.7,29.94,SE,143,3.0,5.0,85,0.00,,,0.00,185.0,meteohub,2013-10-19 12:38:00,
2013-10-19 08:43:00,80.2,74.7,29.94,ESE,120,3.0,5.0,83,0.00,,,0.00,199.0,meteohub,2013-10-19 12:43:00,
2013-10-19 08:48:00,81.0,74.7,29.94,SE,132,3.0,5.0,81,0.00,,,0.00,216.0,meteohub,2013-10-19 12:48:00,
2013-10-19 08:53:00,81.5,74.3,29.94,SE,140,2.0,7.0,79,0.00,,,0.00,232.0,meteohub,2013-10-19 12:53:00,
2013-10-19 08:58:00,81.9,73.9,29.94,SE,135,3.0,7.0,77,0.00,,,0.00,250.0,meteohub,2013-10-19 12:58:00,
2013-10-19 09:03:00,82.2,73.9,29.94,SE,127,4.0,7.0,76,0.00,,,0.00,262.0,meteohub,2013-10-19 13:03:00,
2013-10-19 09:08:00,82.6,73.8,29.94,ESE,123,7.0,7.0,75,0.00,,,0.00,278.0,meteohub,2013-10-19 13:08:00,
2013-10-19 09:13:00,82.9,73.8,29.95,ESE,123,4.0,8.0,74,0.00,,,0.00,292.0,meteohub,2013-10-19 13:13:00,
2013-10-19 09:18:00,83.1,73.2,29.95,SE,141,9.0,9.0,72,0.00,,,0.00,308.0,meteohub,2013-10-19 13:18:00,
2013-10-19 09:23:00,83.3,73.8,29.95,SSE,157,6.0,9.0,73,0.00,,,0.00,323.0,meteohub,2013-10-19 13:23:00,
2013-10-19 09:28:00,83.5,73.6,29.95,East,101,9.0,9.0,72,0.00,,,0.00,339.0,meteohub,2013-10-19 13:28:00,
2013-10-19 09:33:00,83.7,73.2,29.95,SE,138,4.0,10.0,71,0.00,,,0.00,355.0,meteohub,2013-10-19 13:33:00,
2013-10-19 09:38:00,83.7,72.3,29.95,ESE,120,11.0,11.0,69,0.00,,,0.00,369.0,meteohub,2013-10-19 13:38:00,
2013-10-19 09:43:00,83.8,73.0,29.95,SE,128,9.0,12.0,70,0.00,,,0.00,385.0,meteohub,2013-10-19 13:43:00,
2013-10-19 09:48:00,84.4,73.6,29.96,SSE,163,5.0,12.0,70,0.00,,,0.00,397.0,meteohub,2013-10-19 13:48:00,
2013-10-19 09:53:00,84.4,72.7,29.96,ESE,107,9.0,12.0,68,0.00,,,0.00,415.0,meteohub,2013-10-19 13:53:00,
2013-10-19 09:58:00,84.6,72.9,29.96,ESE,122,5.0,10.0,68,0.00,,,0.00,427.0,meteohub,2013-10-19 13:58:00,
2013-10-19 10:03:00,84.4,72.1,29.96,SE,134,4.0,11.0,67,0.00,,,0.00,441.0,meteohub,2013-10-19 14:03:00,
2013-10-19 10:09:00,84.9,72.7,29.95,South,175,5.0,13.0,67,0.00,,,0.00,455.0,meteohub,2013-10-19 14:09:00,
2013-10-19 10:14:00,85.3,72.7,29.95,SE,134,5.0,13.0,66,0.00,,,0.00,469.0,meteohub,2013-10-19 14:14:00,
2013-10-19 10:19:00,85.1,72.5,29.95,South,189,5.0,13.0,66,0.00,,,0.00,483.0,meteohub,2013-10-19 14:19:00,
2013-10-19 10:24:00,85.3,72.1,29.95,SE,137,7.0,11.0,65,0.00,,,0.00,496.0,meteohub,2013-10-19 14:24:00,
2013-10-19 10:29:00,85.6,72.5,29.95,SSE,152,7.0,12.0,65,0.00,,,0.00,508.0,meteohub,2013-10-19 14:29:00,
2013-10-19 10:34:00,85.1,71.6,29.95,South,176,10.0,12.0,64,0.00,,,0.00,519.0,meteohub,2013-10-19 14:34:00,
2013-10-19 10:39:00,85.1,71.6,29.95,South,178,5.0,13.0,64,0.00,,,0.00,531.0,meteohub,2013-10-19 14:39:00,
2013-10-19 10:44:00,85.5,71.4,29.95,SE,136,10.0,13.0,63,0.00,,,0.00,543.0,meteohub,2013-10-19 14:44:00,
2013-10-19 10:49:00,85.6,72.1,29.95,ESE,117,9.0,13.0,64,0.00,,,0.00,555.0,meteohub,2013-10-19 14:49:00,
2013-10-19 10:54:00,85.6,71.6,29.95,SE,142,6.0,13.0,63,0.00,,,0.00,570.0,meteohub,2013-10-19 14:54:00,
2013-10-19 10:59:00,85.8,71.2,29.95,SE,146,4.0,12.0,62,0.00,,,0.00,577.0,meteohub,2013-10-19 14:59:00,
2013-10-19 11:04:00,86.0,72.3,29.95,SSE,148,6.0,13.0,64,0.00,,,0.00,587.0,meteohub,2013-10-19 15:04:00,
2013-10-19 11:09:00,86.2,72.1,29.95,South,173,3.0,13.0,63,0.00,,,0.00,598.0,meteohub,2013-10-19 15:09:00,
2013-10-19 11:14:00,85.8,71.8,29.95,SE,146,4.0,13.0,63,0.00,,,0.00,610.0,meteohub,2013-10-19 15:14:00,
2013-10-19 11:19:00,86.7,72.1,29.95,South,173,7.0,14.0,62,0.00,,,0.00,617.0,meteohub,2013-10-19 15:19:00,
2013-10-19 11:24:00,86.4,72.3,29.95,ESE,109,7.0,14.0,63,0.00,,,0.00,626.0,meteohub,2013-10-19 15:24:00,
2013-10-19 11:29:00,86.0,71.4,29.95,SE,132,6.0,14.0,62,0.00,,,0.00,635.0,meteohub,2013-10-19 15:29:00,
2013-10-19 11:34:00,85.6,71.6,29.95,SSE,157,4.0,10.0,63,0.00,,,0.00,645.0,meteohub,2013-10-19 15:34:00,
2013-10-19 11:39:00,86.0,72.0,29.94,SE,138,10.0,15.0,63,0.00,,,0.00,650.0,meteohub,2013-10-19 15:39:00,
2013-10-19 11:45:00,86.2,71.6,29.94,SSE,148,6.0,15.0,62,0.00,,,0.00,659.0,meteohub,2013-10-19 15:45:00,
2013-10-19 11:51:00,86.4,71.8,29.94,South,186,6.0,11.0,62,0.00,,,0.00,668.0,meteohub,2013-10-19 15:51:00,
2013-10-19 11:56:00,86.4,71.2,29.94,SE,126,5.0,11.0,61,0.00,,,0.00,675.0,meteohub,2013-10-19 15:56:00,
2013-10-19 12:01:00,86.4,71.8,29.94,ESE,105,8.0,10.0,62,0.00,,,0.00,680.0,meteohub,2013-10-19 16:01:00,
2013-10-19 12:06:00,86.0,72.3,29.94,SE,138,3.0,9.0,64,0.00,,,0.00,687.0,meteohub,2013-10-19 16:06:00,
2013-10-19 12:11:00,86.4,72.3,29.94,SSE,163,10.0,10.0,63,0.00,,,0.00,694.0,meteohub,2013-10-19 16:11:00,
2013-10-19 12:16:00,86.5,72.0,29.94,SSE,166,5.0,10.0,62,0.00,,,0.00,703.0,meteohub,2013-10-19 16:16:00,
2013-10-19 12:21:00,86.7,72.7,29.94,SE,132,4.0,10.0,63,0.00,,,0.00,712.0,meteohub,2013-10-19 16:21:00,
2013-10-19 12:26:00,87.4,72.3,29.94,ESE,121,3.0,10.0,61,0.00,,,0.00,717.0,meteohub,2013-10-19 16:26:00,
2013-10-19 12:31:00,87.4,72.9,29.93,East,90,5.0,10.0,62,0.00,,,0.00,768.0,meteohub,2013-10-19 16:31:00,
2013-10-19 12:36:00,88.0,72.9,29.93,SE,124,6.0,9.0,61,0.00,,,0.00,763.0,meteohub,2013-10-19 16:36:00,
2013-10-19 12:41:00,86.7,72.1,29.93,SE,144,6.0,12.0,62,0.00,,,0.00,777.0,meteohub,2013-10-19 16:41:00,
2013-10-19 12:46:00,87.1,72.9,29.92,SSE,153,8.0,12.0,63,0.00,,,0.00,856.0,meteohub,2013-10-19 16:46:00,
2013-10-19 12:51:00,87.4,72.3,29.92,SE,125,2.0,12.0,61,0.00,,,0.00,134.0,meteohub,2013-10-19 16:51:00,
2013-10-19 12:56:00,87.3,72.1,29.92,SE,125,5.0,11.0,61,0.00,,,0.00,160.0,meteohub,2013-10-19 16:56:00,
2013-10-19 13:01:00,87.6,73.0,29.92,SE,141,10.0,11.0,62,0.00,,,0.00,812.0,meteohub,2013-10-19 17:01:00,
2013-10-19 13:06:00,88.0,72.3,29.92,South,169,6.0,12.0,60,0.00,,,0.00,218.0,meteohub,2013-10-19 17:06:00,
2013-10-19 13:11:00,87.6,72.0,29.92,SSE,155,4.0,12.0,60,0.00,,,0.00,844.0,meteohub,2013-10-19 17:11:00,
2013-10-19 13:16:00,87.6,73.0,29.91,South,173,7.0,12.0,62,0.00,,,0.00,830.0,meteohub,2013-10-19 17:16:00,
2013-10-19 13:21:00,87.6,72.5,29.91,SE,146,3.0,10.0,61,0.00,,,0.00,322.0,meteohub,2013-10-19 17:21:00,
2013-10-19 13:26:00,88.2,72.0,29.91,SE,144,0.0,11.0,59,0.00,,,0.00,798.0,meteohub,2013-10-19 17:26:00,
2013-10-19 13:31:00,88.2,72.5,29.91,SSE,150,8.0,11.0,60,0.00,,,0.00,749.0,meteohub,2013-10-19 17:31:00,
2013-10-19 13:37:00,88.2,72.5,29.91,ESE,121,7.0,11.0,60,0.00,,,0.00,738.0,meteohub,2013-10-19 17:37:00,
2013-10-19 13:42:00,88.2,73.0,29.91,SSE,148,5.0,10.0,61,0.00,,,0.00,740.0,meteohub,2013-10-19 17:42:00,
2013-10-19 13:47:00,88.3,72.1,29.90,South,180,7.0,12.0,59,0.00,,,0.00,758.0,meteohub,2013-10-19 17:47:00,
2013-10-19 13:52:00,88.5,72.9,29.90,SE,134,4.0,12.0,60,0.00,,,0.00,770.0,meteohub,2013-10-19 17:52:00,
2013-10-19 13:57:00,89.1,72.9,29.90,South,171,6.0,12.0,59,0.00,,,0.00,765.0,meteohub,2013-10-19 17:57:00,
2013-10-19 14:02:00,88.2,72.5,29.89,SSE,158,5.0,13.0,60,0.00,,,0.00,765.0,meteohub,2013-10-19 18:02:00,
2013-10-19 14:07:00,88.5,72.9,29.89,ESE,103,7.0,13.0,60,0.00,,,0.00,744.0,meteohub,2013-10-19 18:07:00,
2013-10-19 14:12:00,89.6,73.4,29.89,SE,128,11.0,13.0,59,0.00,,,0.00,715.0,meteohub,2013-10-19 18:12:00,
2013-10-19 14:17:00,88.7,72.5,29.89,South,169,5.0,13.0,59,0.00,,,0.00,752.0,meteohub,2013-10-19 18:17:00,
2013-10-19 14:22:00,88.3,73.2,29.89,ESE,113,9.0,13.0,61,0.00,,,0.00,777.0,meteohub,2013-10-19 18:22:00,
2013-10-19 14:27:00,88.2,72.5,29.89,SE,143,6.0,13.0,60,0.00,,,0.00,116.0,meteohub,2013-10-19 18:27:00,
2013-10-19 14:32:00,87.3,73.0,29.88,ESE,107,5.0,10.0,63,0.00,,,0.00,171.0,meteohub,2013-10-19 18:32:00,
2013-10-19 14:37:00,87.1,73.4,29.88,ESE,109,5.0,10.0,64,0.00,,,0.00,167.0,meteohub,2013-10-19 18:37:00,
2013-10-19 14:42:00,87.8,73.6,29.88,SE,126,10.0,10.0,63,0.00,,,0.00,663.0,meteohub,2013-10-19 18:42:00,
2013-10-19 14:47:00,88.5,73.8,29.88,ESE,112,7.0,11.0,62,0.00,,,0.00,666.0,meteohub,2013-10-19 18:47:00,
2013-10-19 14:52:00,88.5,74.3,29.88,East,96,9.0,11.0,63,0.00,,,0.00,663.0,meteohub,2013-10-19 18:52:00,
2013-10-19 14:57:00,88.5,73.8,29.88,East,89,6.0,11.0,62,0.00,,,0.00,622.0,meteohub,2013-10-19 18:57:00,
2013-10-19 15:02:00,88.9,74.1,29.87,ESE,107,9.0,12.0,62,0.00,,,0.00,116.0,meteohub,2013-10-19 19:02:00,
2013-10-19 15:07:00,88.7,73.6,29.88,SE,133,8.0,12.0,61,0.00,,,0.00,624.0,meteohub,2013-10-19 19:07:00,
2013-10-19 15:12:00,88.0,73.4,29.87,East,101,6.0,11.0,62,0.00,,,0.00,552.0,meteohub,2013-10-19 19:12:00,
2013-10-19 15:17:00,87.6,73.4,29.87,ESE,119,10.0,12.0,63,0.00,,,0.00,585.0,meteohub,2013-10-19 19:17:00,
2013-10-19 15:22:00,87.6,73.9,29.87,ESE,115,7.0,12.0,64,0.00,,,0.00,566.0,meteohub,2013-10-19 19:22:00,
2013-10-19 15:27:00,87.8,74.1,29.87,SE,144,7.0,12.0,64,0.00,,,0.00,554.0,meteohub,2013-10-19 19:27:00,
2013-10-19 15:32:00,87.4,73.2,29.87,ENE,74,8.0,12.0,63,0.00,,,0.00,564.0,meteohub,2013-10-19 19:32:00,
2013-10-19 15:37:00,87.4,73.8,29.87,ESE,119,9.0,12.0,64,0.00,,,0.00,524.0,meteohub,2013-10-19 19:37:00,
2013-10-19 15:42:00,87.3,73.6,29.87,East,98,10.0,12.0,64,0.00,,,0.00,522.0,meteohub,2013-10-19 19:42:00,
2013-10-19 15:47:00,87.3,74.1,29.87,ESE,121,8.0,13.0,65,0.00,,,0.00,503.0,meteohub,2013-10-19 19:47:00,
2013-10-19 15:52:00,87.1,74.3,29.87,East,100,9.0,13.0,66,0.00,,,0.00,499.0,meteohub,2013-10-19 19:52:00,
2013-10-19 15:57:00,87.1,74.3,29.87,ESE,121,11.0,14.0,66,0.00,,,0.00,494.0,meteohub,2013-10-19 19:57:00,
2013-10-19 16:02:00,86.7,74.5,29.87,ESE,105,9.0,14.0,67,0.00,,,0.00,229.0,meteohub,2013-10-19 20:02:00,
2013-10-19 16:07:00,86.7,73.9,29.87,ESE,114,9.0,14.0,66,0.00,,,0.00,496.0,meteohub,2013-10-19 20:07:00,
2013-10-19 16:12:00,86.4,74.1,29.87,SE,128,7.0,13.0,67,0.00,,,0.00,476.0,meteohub,2013-10-19 20:12:00,
2013-10-19 16:17:00,86.2,74.8,29.87,SSE,159,5.0,13.0,69,0.00,,,0.00,272.0,meteohub,2013-10-19 20:17:00,
2013-10-19 16:22:00,86.5,74.7,29.87,ESE,112,5.0,13.0,68,0.00,,,0.00,439.0,meteohub,2013-10-19 20:22:00,
2013-10-19 16:27:00,86.9,74.7,29.87,SSE,158,3.0,12.0,67,0.00,,,0.00,396.0,meteohub,2013-10-19 20:27:00,
2013-10-19 16:32:00,86.5,73.4,29.87,SSE,163,7.0,11.0,65,0.00,,,0.00,376.0,meteohub,2013-10-19 20:32:00,
2013-10-19 16:37:00,86.5,73.8,29.87,SE,145,9.0,11.0,66,0.00,,,0.00,357.0,meteohub,2013-10-19 20:37:00,
2013-10-19 16:42:00,86.5,74.7,29.87,SE,146,4.0,12.0,68,0.00,,,0.00,352.0,meteohub,2013-10-19 20:42:00,
2013-10-19 16:47:00,85.6,73.9,29.87,SSE,148,9.0,12.0,68,0.00,,,0.00,69.0,meteohub,2013-10-19 20:47:00,
2013-10-19 16:52:00,85.1,74.1,29.87,East,101,8.0,12.0,70,0.00,,,0.00,65.0,meteohub,2013-10-19 20:52:00,
2013-10-19 16:57:00,84.7,74.3,29.87,SE,140,6.0,12.0,71,0.00,,,0.00,86.0,meteohub,2013-10-19 20:57:00,
2013-10-19 17:02:00,84.7,74.3,29.87,SE,132,12.0,12.0,71,0.00,,,0.00,90.0,meteohub,2013-10-19 21:02:00,
2013-10-19 17:07:00,84.2,74.1,29.87,SE,126,7.0,13.0,72,0.00,,,0.00,70.0,meteohub,2013-10-19 21:07:00,
2013-10-19 17:12:00,83.8,73.8,29.87,ESE,119,9.0,13.0,72,0.00,,,0.00,65.0,meteohub,2013-10-19 21:12:00,
2013-10-19 17:17:00,83.5,73.9,29.87,SE,138,9.0,13.0,73,0.00,,,0.00,63.0,meteohub,2013-10-19 21:17:00,
2013-10-19 17:22:00,83.5,73.9,29.87,SE,138,5.0,12.0,73,0.00,,,0.00,63.0,meteohub,2013-10-19 21:22:00,
2013-10-19 17:27:00,83.5,74.3,29.87,SE,128,6.0,12.0,74,0.00,,,0.00,67.0,meteohub,2013-10-19 21:27:00,
2013-10-19 17:32:00,83.5,74.3,29.87,SE,129,4.0,12.0,74,0.00,,,0.00,58.0,meteohub,2013-10-19 21:32:00,
2013-10-19 17:37:00,83.5,74.3,29.87,ESE,119,3.0,12.0,74,0.00,,,0.00,54.0,meteohub,2013-10-19 21:37:00,
2013-10-19 17:42:00,83.5,74.3,29.87,SE,133,5.0,11.0,74,0.00,,,0.00,53.0,meteohub,2013-10-19 21:42:00,
2013-10-19 17:47:00,83.1,73.9,29.87,ESE,111,7.0,11.0,74,0.00,,,0.00,51.0,meteohub,2013-10-19 21:47:00,
2013-10-19 17:52:00,83.1,73.9,29.87,SE,127,9.0,13.0,74,0.00,,,0.00,46.0,meteohub,2013-10-19 21:52:00,
2013-10-19 17:57:00,82.9,74.1,29.87,ESE,123,4.0,13.0,75,0.00,,,0.00,33.0,meteohub,2013-10-19 21:57:00,
2013-10-19 18:02:00,82.9,74.1,29.87,SE,128,7.0,12.0,75,0.00,,,0.00,9.0,meteohub,2013-10-19 22:02:00,
2013-10-19 18:07:00,82.8,73.9,29.87,East,94,9.0,12.0,75,0.00,,,0.00,7.0,meteohub,2013-10-19 22:07:00,
2013-10-19 18:12:00,82.8,73.9,29.87,SE,133,8.0,12.0,75,0.00,,,0.00,7.0,meteohub,2013-10-19 22:12:00,
2013-10-19 18:17:00,82.6,73.8,29.88,SSE,154,5.0,12.0,75,0.00,,,0.00,7.0,meteohub,2013-10-19 22:17:00,
2013-10-19 18:22:00,82.6,73.8,29.88,SE,144,4.0,11.0,75,0.00,,,0.00,5.0,meteohub,2013-10-19 22:22:00,
2013-10-19 18:27:00,82.6,74.3,29.88,SE,130,5.0,11.0,76,0.00,,,0.00,5.0,meteohub,2013-10-19 22:27:00,
2013-10-19 18:32:00,82.4,74.1,29.88,SE,128,5.0,9.0,76,0.00,,,0.00,5.0,meteohub,2013-10-19 22:32:00,
2013-10-19 18:37:00,82.2,73.9,29.88,SSE,149,7.0,10.0,76,0.00,,,0.00,5.0,meteohub,2013-10-19 22:37:00,
2013-10-19 18:42:00,82.2,73.9,29.88,SSE,157,4.0,10.0,76,0.00,,,0.00,0.0,meteohub,2013-10-19 22:42:00,
2013-10-19 18:47:00,82.2,74.3,29.88,SSE,156,10.0,10.0,77,0.00,,,0.00,0.0,meteohub,2013-10-19 22:47:00,
2013-10-19 18:52:00,82.0,74.1,29.88,ESE,113,4.0,11.0,77,0.00,,,0.00,0.0,meteohub,2013-10-19 22:52:00,
2013-10-19 18:57:00,82.0,74.5,29.88,South,179,3.0,11.0,78,0.00,,,0.00,0.0,meteohub,2013-10-19 22:57:00,
2013-10-19 19:02:00,82.0,74.5,29.88,SSE,165,2.0,11.0,78,0.00,,,0.00,0.0,meteohub,2013-10-19 23:02:00,
2013-10-19 19:07:00,81.9,74.3,29.88,SSE,148,3.0,11.0,78,0.00,,,0.00,0.0,meteohub,2013-10-19 23:07:00,
2013-10-19 19:12:00,81.7,74.1,29.88,SSE,157,6.0,9.0,78,0.00,,,0.00,0.0,meteohub,2013-10-19 23:12:00,
2013-10-19 19:17:00,81.7,74.1,29.89,SE,133,4.0,10.0,78,0.00,,,0.00,0.0,meteohub,2013-10-19 23:17:00,
2013-10-19 19:22:00,81.7,74.5,29.89,SE,138,5.0,10.0,79,0.00,,,0.00,0.0,meteohub,2013-10-19 23:22:00,
2013-10-19 19:27:00,81.5,74.3,29.89,SE,146,3.0,10.0,79,0.00,,,0.00,0.0,meteohub,2013-10-19 23:27:00,
2013-10-19 19:32:00,81.5,74.3,29.88,SE,134,8.0,10.0,79,0.00,,,0.00,0.0,meteohub,2013-10-19 23:32:00,
2013-10-19 19:37:00,81.3,74.1,29.89,ESE,113,8.0,9.0,79,0.00,,,0.00,0.0,meteohub,2013-10-19 23:37:00,
2013-10-19 19:42:00,81.3,74.1,29.89,SE,136,6.0,10.0,79,0.00,,,0.00,0.0,meteohub,2013-10-19 23:42:00,
2013-10-19 19:47:00,81.3,74.1,29.89,ESE,117,5.0,10.0,79,0.00,,,0.00,0.0,meteohub,2013-10-19 23:47:00,
2013-10-19 19:52:00,81.3,74.1,29.90,SSE,152,6.0,10.0,79,0.00,,,0.00,0.0,meteohub,2013-10-19 23:52:00,
2013-10-19 19:57:00,81.3,74.1,29.90,SE,127,6.0,10.0,79,0.00,,,0.00,0.0,meteohub,2013-10-19 23:57:00,
2013-10-19 20:02:00,81.3,74.5,29.91,SSE,147,1.0,8.0,80,0.00,,,0.00,0.0,meteohub,2013-10-20 00:02:00,
2013-10-19 20:07:00,81.3,74.5,29.91,SE,146,1.0,7.0,80,0.00,,,0.00,0.0,meteohub,2013-10-20 00:07:00,
2013-10-19 20:12:00,81.3,74.5,29.90,SSE,153,3.0,7.0,80,0.00,,,0.00,0.0,meteohub,2013-10-20 00:12:00,
2013-10-19 20:17:00,81.3,74.5,29.90,SSE,161,5.0,6.0,80,0.00,,,0.00,0.0,meteohub,2013-10-20 00:17:00,
2013-10-19 20:22:00,81.3,74.5,29.91,SE,138,1.0,8.0,80,0.00,,,0.00,0.0,meteohub,2013-10-20 00:22:00,
2013-10-19 20:27:00,81.3,74.5,29.91,SE,143,0.0,8.0,80,0.00,,,0.00,0.0,meteohub,2013-10-20 00:27:00,
2013-10-19 20:32:00,81.3,74.5,29.91,SSE,167,2.0,5.0,80,0.00,,,0.00,0.0,meteohub,2013-10-20 00:32:00,
2013-10-19 20:37:00,81.3,74.5,29.91,SSE,161,0.0,4.0,80,0.00,,,0.00,0.0,meteohub,2013-10-20 00:37:00,
2013-10-19 20:42:00,81.3,74.1,29.91,SE,146,2.0,5.0,79,0.00,,,0.00,0.0,meteohub,2013-10-20 00:42:00,
2013-10-19 20:47:00,81.3,74.1,29.91,SE,145,1.0,5.0,79,0.00,,,0.00,0.0,meteohub,2013-10-20 00:47:00,
2013-10-19 20:52:00,81.1,73.9,29.91,SE,136,3.0,5.0,79,0.00,,,0.00,0.0,meteohub,2013-10-20 00:52:00,
2013-10-19 20:58:00,81.3,74.1,29.91,SE,130,2.0,4.0,79,0.00,,,0.00,0.0,meteohub,2013-10-20 00:58:00,
2013-10-19 21:02:00,81.3,74.1,29.91,SSE,157,3.0,5.0,79,0.00,,,0.00,0.0,meteohub,2013-10-20 01:02:00,
2013-10-19 21:08:00,81.3,74.1,29.91,SSE,157,2.0,7.0,79,0.00,,,0.00,0.0,meteohub,2013-10-20 01:08:00,
2013-10-19 21:13:00,81.3,74.1,29.91,SSE,153,3.0,7.0,79,0.00,,,0.00,0.0,meteohub,2013-10-20 01:13:00,
2013-10-19 21:18:00,81.5,74.3,29.91,SSE,149,0.0,7.0,79,0.00,,,0.00,0.0,meteohub,2013-10-20 01:18:00,
2013-10-19 21:23:00,81.3,74.1,29.91,SSE,153,1.0,5.0,79,0.00,,,0.00,0.0,meteohub,2013-10-20 01:23:00,
2013-10-19 21:28:00,81.5,74.3,29.91,SSE,153,1.0,4.0,79,0.00,,,0.00,0.0,meteohub,2013-10-20 01:28:00,
2013-10-19 21:33:00,81.5,74.3,29.92,SSE,153,0.0,3.0,79,0.00,,,0.00,0.0,meteohub,2013-10-20 01:33:00,
2013-10-19 21:38:00,81.5,74.3,29.92,SSE,153,0.0,3.0,79,0.00,,,0.00,0.0,meteohub,2013-10-20 01:38:00,
2013-10-19 21:43:00,81.7,74.5,29.92,SSE,154,0.0,2.0,79,0.00,,,0.00,0.0,meteohub,2013-10-20 01:43:00,
2013-10-19 21:48:00,81.7,74.5,29.92,SSE,154,2.0,2.0,79,0.00,,,0.00,0.0,meteohub,2013-10-20 01:48:00,
2013-10-19 21:53:00,81.5,74.7,29.92,West,263,0.0,3.0,80,0.00,,,0.00,0.0,meteohub,2013-10-20 01:53:00,
2013-10-19 21:58:00,81.5,75.0,29.92,West,263,1.0,3.0,81,0.00,,,0.00,0.0,meteohub,2013-10-20 01:58:00,
2013-10-19 22:03:00,81.3,75.4,29.92,West,263,0.0,3.0,82,0.00,,,0.00,0.0,meteohub,2013-10-20 02:03:00,
2013-10-19 22:08:00,81.3,75.4,29.92,West,263,0.0,3.0,82,0.00,,,0.00,0.0,meteohub,2013-10-20 02:08:00,
2013-10-19 22:13:00,81.1,75.6,29.92,West,263,0.0,1.0,83,0.00,,,0.00,0.0,meteohub,2013-10-20 02:13:00,
2013-10-19 22:18:00,81.1,75.6,29.92,West,263,0.0,0.0,83,0.00,,,0.00,0.0,meteohub,2013-10-20 02:18:00,
2013-10-19 22:23:00,81.1,75.6,29.92,West,263,0.0,0.0,83,0.00,,,0.00,0.0,meteohub,2013-10-20 02:23:00,
2013-10-19 22:28:00,81.0,75.7,29.92,West,263,2.0,0.0,84,0.00,,,0.00,0.0,meteohub,2013-10-20 02:28:00,
2013-10-19 22:33:00,81.0,75.7,29.93,West,264,1.0,3.0,84,0.00,,,0.00,0.0,meteohub,2013-10-20 02:33:00,
2013-10-19 22:38:00,81.0,76.1,29.93,West,264,1.0,3.0,85,0.00,,,0.00,0.0,meteohub,2013-10-20 02:38:00,
2013-10-19 22:43:00,80.8,75.9,29.93,West,264,0.0,3.0,85,0.00,,,0.00,0.0,meteohub,2013-10-20 02:43:00,
2013-10-19 22:48:00,80.8,76.3,29.93,West,264,0.0,2.0,86,0.00,,,0.00,0.0,meteohub,2013-10-20 02:48:00,
2013-10-19 22:53:00,80.4,75.9,29.93,West,263,0.0,2.0,86,0.00,,,0.00,0.0,meteohub,2013-10-20 02:53:00,
2013-10-19 22:58:00,80.2,76.1,29.93,West,263,0.0,1.0,87,0.00,,,0.00,0.0,meteohub,2013-10-20 02:58:00,
2013-10-19 23:03:00,80.1,75.9,29.93,West,263,0.0,1.0,87,0.00,,,0.00,0.0,meteohub,2013-10-20 03:03:00,
2013-10-19 23:08:00,80.1,76.1,29.93,West,263,0.0,1.0,88,0.00,,,0.00,0.0,meteohub,2013-10-20 03:08:00,
2013-10-19 23:13:00,79.9,75.9,29.93,West,264,0.0,0.0,88,0.00,,,0.00,0.0,meteohub,2013-10-20 03:13:00,
2013-10-19 23:18:00,79.9,75.9,29.93,West,263,0.0,0.0,88,0.00,,,0.00,0.0,meteohub,2013-10-20 03:18:00,
2013-10-19 23:24:00,79.9,75.9,29.93,West,264,0.0,0.0,88,0.00,,,0.00,0.0,meteohub,2013-10-20 03:24:00,
2013-10-19 23:29:00,80.1,76.1,29.93,West,264,0.0,0.0,88,0.00,,,0.00,0.0,meteohub,2013-10-20 03:29:00,
2013-10-19 23:34:00,79.9,75.9,29.93,West,264,0.0,0.0,88,0.00,,,0.00,0.0,meteohub,2013-10-20 03:34:00,
2013-10-19 23:39:00,79.9,75.9,29.93,West,263,0.0,0.0,88,0.00,,,0.00,0.0,meteohub,2013-10-20 03:39:00,
2013-10-19 23:44:00,79.9,76.3,29.93,West,264,0.0,0.0,89,0.00,,,0.00,0.0,meteohub,2013-10-20 03:44:00,
2013-10-19 23:49:00,79.9,76.3,29.92,West,263,0.0,0.0,89,0.00,,,0.00,0.0,meteohub,2013-10-20 03:49:00,
2013-10-19 23:54:00,79.9,76.3,29.92,West,264,0.0,0.0,89,0.00,,,0.00,0.0,meteohub,2013-10-20 03:54:00,
2013-10-19 23:59:00,79.9,76.3,29.92,West,263,1.0,0.0,89,0.00,,,0.00,0.0,meteohub,2013-10-20 03:59:00,